sat.trackr.live / text

‹ back to catalog

ONEWEB-0067

NORAD 45425 · 2020-020B

PAYLOAD ACTIVE UNKNOWN

§ Identity

Operator
Country
UK
Launch date
2020-03-21
Launch site
TYMSC
Launch vehicle
Mass (kg)
RCS (m²)

Purposes: comms

External: N2YO · Heavens-Above · Gunter

§ Orbital elements

Epoch: 2026-05-25T03:26:00.696768Z

Period
109.80 min
Inclination
87.8929°
Eccentricity
0.0001978
Mean motion
13.11421409 rev/d
Perigee alt
1,216.2 km
Apogee alt
1,219.2 km
Semi-major
7,595.8 km
B*
-6.2039e-4
RAAN
25.5738°
Arg perigee
84.7898°
Mean anomaly
275.3456°
Rev number
29,971

§ Raw data

ONEWEB-00671 45425U 20020B   26145.14306362 -.00000207  00000+0 -62039-3 0  99902 45425  87.8929  25.5738 0001978  84.7898 275.3456 13.11421409299710

JSON: /api/v1/satellites/45425 · /tle

For live sub-satellite position, see the globe view (requires WebGL).

§ Visibility from observer

Set your observer location to see the next 7 days of passes ≥ 10°. The values pass through the URL so the page stays shareable.

No JS? Fill the form by hand. The geolocation button needs JavaScript.